Regional Weather Roundup
Issued by NWS

Home | Current Version | Previous Version | Graphics & Text | Print | Product List | Glossary On
Versions: 1 2 3 4 5 6 7 8 9 10 11 12 13 14 15 16 17 18 19 20 21 22 23 24 25 26 27 28
000
ASUS45 KCYS 272210
RWRWY

WYOMING REGIONAL WEATHER ROUNDUP
NATIONAL WEATHER SERVICE CHEYENNE WY
400 PM MDT SAT AUG 27 2016

NOTE:  "FAIR" INDICATES FEW OR NO CLOUDS BELOW 12,000 FEET
WITH NO SIGNIFICANT WEATHER AND/OR OBSTRUCTIONS TO VISIBILITY.

WYZ001-272300-
YELLOWSTONE NATIONAL PARK

CITY           SKY/WX    TMP DP  RH WIND       PRES   REMARKS
LK YELLOWSTONE   N/A     66  17  15 SW9G22    30.18F
W YELLOWSTONE  NOT AVBL

$$
WYZ002>013-054>058-071-098>099-272300-
NORTHERN WYOMING

CITY           SKY/WX    TMP DP  RH WIND       PRES   REMARKS
JACKSON        SUNNY     73  21  14 SW17G23   30.09F
CODY           FAIR      77  34  20 S10       29.95S
GREYBULL       FAIR      81  30  15 SE5       29.88F
WORLAND        FAIR      84  27  12 SW7       29.89F
SHERIDAN       FAIR      81  39  22 CALM      29.89S
BUFFALO        FAIR      81  32  17 N15G21    29.95S
GILLETTE       FAIR      81  29  15 VRB3      29.91F
HULETT         FAIR      81  41  24 W7G16     29.93F
NEWCASTLE      FAIR      79  36  21 S5        29.95F

$$
WYZ014>020-022>026-101>103-272300-
CENTRAL WYOMING

CITY           SKY/WX    TMP DP  RH WIND       PRES   REMARKS
BIG PINEY      FAIR      75  26  16 W9G18     30.14F
PINEDALE       FAIR      72  23  16 W9G16     30.15F
DUBOIS         FAIR      70  18  13 NW20G30   30.10S
LANDER         FAIR      83  26  12 NW12G18   29.98F
RIVERTON       FAIR      78  23  13 NW6       30.00F
CASPER         FAIR      81  20  10 W20G28    29.99F
DOUGLAS        FAIR      83  32  16 W17G23    29.99F

$$
WYZ021-027>030-104>119-272300-
SOUTHERN WYOMING

CITY           SKY/WX    TMP DP  RH WIND       PRES   REMARKS
EVANSTON       FAIR      76  19  11 W20       30.18F
FORT BRIDGER   FAIR      79  21  11 W17G26    30.18F
ROCK SPRINGS   FAIR      76  18  11 SW10G22   30.13F
DIXON          FAIR      78  26  14 SW12G17   30.18F
RAWLINS        FAIR      78  22  12 SW16G29   30.13F
SARATOGA       FAIR      75  23  14 W14G30    30.19S
LARAMIE        CLOUDY    74  28  18 SW14G26   30.16F
CHEYENNE       FAIR      79  34  19 SW12      30.10F
TORRINGTON     FAIR      87  33  14 SE6G20    29.95F
PINE BLUFFS    FAIR      82  32  16 SW6       30.05F

$$




USA.gov is the U.S. government's official web portal to all federal, state and local government web resources and services.